Flag for Canada Weather past 2 weeks in Aklavik, Northwest Territories, Canada

Now
63 °F

Sprinkles. Mostly cloudy.


Feels Like: 63 °F
Forecast: 51 / 70 °F
Wind: 3 mph from Northeast

Location: Inuvik

Current Time: Jul 22, 2014 at 9:20:18 PM

Latest Report: Jul 22, 2014 at 8:46 PM


Visibility: 15 mi

Pressure: 29.80 "Hg

Humidity: 64%

Dew point: 50 °F

Location of AklavikLocation

Historic Weather in Aklavik — Graph

°F

Aklavik temperature yesterday

Maximum temperature yesterday: 68 °F (at 6:00 PM)
Minimum temperature yesterday: 46 °F (at 3:00 AM)
Average temperature yesterday: 57 °F

Past Weeks' High & Low Weather Summary

 TemperatureHumidityPressure
High82 °F (Jul 13, 6:00 PM)100% (Jul 16, 3:00 AM)30.09 "Hg (Jul 16, 3:00 AM)
Low41 °F (Jul 10, 5:00 AM)27% (Jul 10, 6:00 PM)29.49 "Hg (Jul 19, 11:00 PM)
Average59 °F64%29.81 "Hg
* Reported Jul 7 8:00 PM — Jul 22 8:00 PM, Aklavik, Weather by CustomWeather, © 2014

Note: Actual official high and low records may vary slightly from our data, if they occured in-between our weather recording intervals... More about our weather records

Advertising

Aklavik weather history for previous 24 hours

 ConditionsComfort  
Time TempWeatherWind HumidityBarometerVisibility
8:00 PM
Jul 22
63 °FMore clouds than sun.5 mph59%29.82 "Hg15 mi
7:00 PM64 °FMore clouds than sun.2 mph56%29.82 "Hg15 mi
6:00 PM64 °FMore clouds than sun.2 mph52%29.83 "Hg15 mi
10:00 AM55 °FPartly sunny.No wind67%29.90 "Hg15 mi
9:00 AM55 °FMostly cloudy.No wind67%29.90 "Hg15 mi
8:00 AM54 °FMostly cloudy.2 mph77%29.90 "Hg15 mi
7:00 AM54 °FMostly cloudy.No wind77%29.90 "Hg15 mi
6:00 AM54 °FMore clouds than sun.2 mph77%29.90 "Hg15 mi
5:00 AM54 °FMostly cloudy.5 mph77%29.89 "Hg15 mi
4:00 AM55 °FMore clouds than sun.6 mph72%29.88 "Hg15 mi
3:00 AM57 °FMore clouds than sun.9 mph63%29.87 "Hg15 mi
2:00 AM57 °FPartly sunny.6 mph72%29.85 "Hg15 mi
1:00 AM57 °FMostly cloudy.12 mph63%29.83 "Hg15 mi
12:00 AM61 °FPartly sunny.6 mph59%29.82 "Hg15 mi
11:02 PM
Jul 21
66 °FPartly sunny.3 mph43%29.81 "Hg15 mi
10:00 PM68 °FPartly sunny.No wind40%29.81 "Hg15 mi
9:00 PM68 °FPartly sunny.8 mph35%29.81 "Hg15 mi
Weather by CustomWeather, © 2014

See weather overviewHow to use our weather pages